TimeCDT,TemperatureF,Dew PointF,Humidity,Sea Level PressureIn,VisibilityMPH,Wind Direction,Wind SpeedMPH,Gust SpeedMPH,PrecipitationIn,Events,Conditions,WindDirDegrees,DateUTC
12:53 AM,75.9,72.0,87,29.93,10.0,ESE,3.5,-,N/A,,Scattered Clouds,120,2013-10-04 05:53:00
1:53 AM,75.0,71.1,87,29.93,10.0,Calm,Calm,-,N/A,,Partly Cloudy,0,2013-10-04 06:53:00
2:53 AM,73.9,71.1,91,29.92,10.0,Calm,Calm,-,N/A,,Partly Cloudy,0,2013-10-04 07:53:00
3:53 AM,73.0,70.0,90,29.91,10.0,Calm,Calm,-,N/A,,Partly Cloudy,0,2013-10-04 08:53:00
4:53 AM,72.0,70.0,93,29.91,10.0,Calm,Calm,-,N/A,,Partly Cloudy,0,2013-10-04 09:53:00
5:53 AM,72.0,70.0,93,29.92,10.0,Calm,Calm,-,N/A,,Partly Cloudy,0,2013-10-04 10:53:00
6:53 AM,72.0,70.0,93,29.93,10.0,Calm,Calm,-,N/A,,Partly Cloudy,0,2013-10-04 11:53:00
7:53 AM,72.0,71.1,97,29.94,10.0,Calm,Calm,-,N/A,,Partly Cloudy,0,2013-10-04 12:53:00
8:53 AM,78.1,73.9,87,29.94,10.0,Calm,Calm,-,N/A,,Partly Cloudy,0,2013-10-04 13:53:00
9:53 AM,82.0,73.0,74,29.96,10.0,SW,3.5,-,N/A,,Partly Cloudy,220,2013-10-04 14:53:00
10:53 AM,84.0,73.0,69,29.96,10.0,South,5.8,-,N/A,,Scattered Clouds,190,2013-10-04 15:53:00
11:53 AM,86.0,72.0,63,29.95,10.0,SSE,6.9,-,N/A,,Scattered Clouds,150,2013-10-04 16:53:00
12:53 PM,87.1,71.1,59,29.94,10.0,SSW,3.5,-,N/A,,Scattered Clouds,210,2013-10-04 17:53:00
1:53 PM,89.1,70.0,53,29.91,10.0,SE,8.1,-,N/A,,Scattered Clouds,140,2013-10-04 18:53:00
2:53 PM,88.0,70.0,55,29.90,10.0,South,8.1,-,N/A,,Scattered Clouds,180,2013-10-04 19:53:00
3:53 PM,89.1,69.1,52,29.90,10.0,SSE,9.2,-,N/A,,Scattered Clouds,150,2013-10-04 20:53:00
4:53 PM,88.0,71.1,57,29.89,10.0,South,10.4,-,N/A,,Scattered Clouds,180,2013-10-04 21:53:00
5:53 PM,84.9,73.9,69,29.90,10.0,ESE,9.2,-,N/A,,Scattered Clouds,110,2013-10-04 22:53:00
6:53 PM,82.9,73.0,72,29.91,10.0,SSE,5.8,-,N/A,,Scattered Clouds,150,2013-10-04 23:53:00
7:53 PM,81.0,73.9,79,29.92,10.0,SSE,4.6,-,N/A,,Scattered Clouds,160,2013-10-05 00:53:00
8:53 PM,81.0,75.0,82,29.93,10.0,Variable,4.6,-,N/A,,Mostly Cloudy,0,2013-10-05 01:53:00
9:53 PM,81.0,73.9,79,29.94,10.0,ESE,5.8,-,N/A,,Scattered Clouds,120,2013-10-05 02:53:00
10:53 PM,79.0,73.9,84,29.94,10.0,SE,5.8,-,N/A,,Partly Cloudy,130,2013-10-05 03:53:00
11:53 PM,79.0,73.9,84,29.93,10.0,Calm,Calm,-,N/A,,Clear,0,2013-10-05 04:53:00